| time (UTC) | temp F | wind direction | speed MPH | gust MPH | rain 1hr in | rain 24hr in | rain mn in | humidity % | barometer mb |
| 20260504160104 | 73 | 306 | 0.0 | 6.0 | 0.00 | 0.00 | 0.00 | 44 | 1009.4 |
| 20260504151104 | 68 | 346 | 0.0 | 5.0 | 0.00 | 0.00 | 0.00 | 50 | 1009.5 |
| 20260504150103 | 66 | 317 | 2.0 | 9.0 | 0.00 | 0.00 | 0.00 | 52 | 1009.5 |
| 20260504140604 | 63 | 344 | 0.0 | 2.0 | 0.00 | 0.00 | 0.00 | 63 | 1009.2 |
| 20260504140104 | 63 | 313 | 1.0 | 5.0 | 0.00 | 0.00 | 0.00 | 62 | 1009.2 |
| 20260504130603 | 62 | 5 | 0.0 | 0.0 | 0.00 | 0.00 | 0.00 | 61 | 1008.8 |
| 20260504130104 | 62 | 5 | 0.0 | 0.0 | 0.00 | 0.00 | 0.00 | 61 | 1008.7 |
| 20260504120104 | 64 | 5 | 0.0 | 2.0 | 0.00 | 0.00 | 0.00 | 55 | 1008.9 |
| 20260504110603 | 67 | 282 | 0.0 | 2.0 | 0.00 | 0.00 | 0.00 | 50 | 1008.7 |
| 20260504110103 | 67 | 30 | 0.0 | 0.0 | 0.00 | 0.00 | 0.00 | 52 | 1008.8 |
| 20260504100604 | 67 | 312 | 3.0 | 14.0 | 0.00 | 0.00 | 0.00 | 49 | 1008.8 |
| 20260504100104 | 67 | 327 | 1.0 | 8.0 | 0.00 | 0.00 | 0.00 | 52 | 1008.7 |
| 20260504090104 | 69 | 327 | 1.0 | 8.0 | 0.00 | 0.00 | 0.00 | 45 | 1008.4 |
| 20260504080604 | 68 | 325 | 2.0 | 8.0 | 0.00 | 0.00 | 0.00 | 49 | 1008.4 |
| 20260504080104 | 68 | 355 | 0.0 | 0.0 | 0.00 | 0.00 | 0.00 | 50 | 1008.4 |
| 20260504070104 | 68 | 325 | 0.0 | 2.0 | 0.00 | 0.00 | 0.00 | 46 | 1008.8 |
| 20260504060104 | 70 | 240 | 0.0 | 0.0 | 0.00 | 0.00 | 0.00 | 40 | 1008.6 |
| 20260504050603 | 69 | 240 | 0.0 | 0.0 | 0.00 | 0.00 | 0.00 | 42 | 1008.8 |
| 20260504050104 | 69 | 240 | 0.0 | 0.0 | 0.00 | 0.00 | 0.00 | 41 | 1008.8 |
| 20260504045603 | 69 | 240 | 0.0 | 0.0 | 0.00 | 0.00 | 0.00 | 42 | 1008.9 |
| 20260504045103 | 69 | 240 | 0.0 | 0.0 | 0.00 | 0.00 | 0.00 | 41 | 1008.9 |
| 20260504044603 | 69 | 240 | 0.0 | 0.0 | 0.00 | 0.00 | 0.00 | 44 | 1009.0 |
| 20260504044103 | 69 | 240 | 0.0 | 0.0 | 0.00 | 0.00 | 0.00 | 43 | 1009.0 |
| 20260504043603 | 69 | 240 | 0.0 | 0.0 | 0.00 | 0.00 | 0.00 | 42 | 1009.0 |
| 20260504043103 | 69 | 240 | 0.0 | 0.0 | 0.00 | 0.00 | 0.00 | 43 | 1009.0 |
| 20260504042603 | 70 | 240 | 0.0 | 0.0 | 0.00 | 0.00 | 0.00 | 42 | 1009.0 |
| 20260504042103 | 70 | 240 | 0.0 | 0.0 | 0.00 | 0.00 | 0.00 | 42 | 1009.0 |
| 20260504041104 | 70 | 240 | 0.0 | 0.0 | 0.00 | 0.00 | 0.00 | 40 | 1009.0 |
| 20260504040603 | 70 | 240 | 0.0 | 0.0 | 0.00 | 0.00 | 0.00 | 41 | 1009.1 |
| 20260504040103 | 70 | 240 | 0.0 | 0.0 | 0.00 | 0.00 | 0.00 | 40 | 1009.1 |
| 20260504035603 | 70 | 240 | 0.0 | 0.0 | 0.00 | 0.00 | 0.00 | 40 | 1009.1 |
| 20260504035105 | 69 | 240 | 0.0 | 0.0 | 0.00 | 0.00 | 0.00 | 40 | 1009.1 |
| 20260504034605 | 70 | 240 | 0.0 | 0.0 | 0.00 | 0.00 | 0.00 | 42 | 1009.1 |
| 20260504034105 | 70 | 240 | 0.0 | 0.0 | 0.00 | 0.00 | 0.00 | 40 | 1009.1 |
| 20260504032605 | 69 | 240 | 0.0 | 0.0 | 0.00 | 0.00 | 0.00 | 43 | 1009.2 |
| 20260504032105 | 69 | 240 | 0.0 | 0.0 | 0.00 | 0.00 | 0.00 | 44 | 1009.2 |
| 20260504031605 | 69 | 240 | 0.0 | 0.0 | 0.00 | 0.00 | 0.00 | 44 | 1009.2 |
| 20260504031104 | 69 | 240 | 0.0 | 0.0 | 0.00 | 0.00 | 0.00 | 45 | 1009.2 |
| 20260504030605 | 69 | 240 | 0.0 | 0.0 | 0.00 | 0.00 | 0.00 | 45 | 1009.2 |
| 20260504030105 | 69 | 240 | 0.0 | 0.0 | 0.00 | 0.00 | 0.00 | 45 | 1009.4 |
| 20260504025605 | 69 | 240 | 0.0 | 0.0 | 0.00 | 0.00 | 0.00 | 47 | 1009.3 |
| 20260504025105 | 70 | 240 | 0.0 | 0.0 | 0.00 | 0.00 | 0.00 | 45 | 1009.3 |
| 20260504024605 | 70 | 240 | 0.0 | 0.0 | 0.00 | 0.00 | 0.00 | 46 | 1009.3 |
| 20260504024105 | 70 | 240 | 0.0 | 0.0 | 0.00 | 0.00 | 0.00 | 47 | 1009.3 |
| 20260504023605 | 70 | 240 | 0.0 | 0.0 | 0.00 | 0.00 | 0.00 | 46 | 1009.3 |
| 20260504023105 | 70 | 240 | 0.0 | 0.0 | 0.00 | 0.00 | 0.00 | 46 | 1009.3 |
| 20260504022605 | 70 | 240 | 0.0 | 0.0 | 0.00 | 0.00 | 0.00 | 46 | 1009.3 |
| 20260504022105 | 70 | 240 | 0.0 | 0.0 | 0.00 | 0.00 | 0.00 | 45 | 1009.4 |
| 20260504021605 | 71 | 265 | 0.0 | 0.0 | 0.00 | 0.00 | 0.00 | 46 | 1009.4 |
| 20260504021105 | 71 | 264 | 0.0 | 0.0 | 0.00 | 0.00 | 0.00 | 45 | 1009.4 |
| 20260504020605 | 71 | 264 | 0.0 | 0.0 | 0.00 | 0.00 | 0.00 | 45 | 1009.4 |
| 20260504020105 | 71 | 265 | 0.0 | 0.0 | 0.00 | 0.00 | 0.00 | 45 | 1009.4 |
| 20260504015605 | 71 | 264 | 0.0 | 0.0 | 0.00 | 0.00 | 0.00 | 44 | 1009.5 |
| 20260504015105 | 71 | 264 | 0.0 | 2.0 | 0.00 | 0.00 | 0.00 | 46 | 1009.5 |
| 20260504014605 | 71 | 355 | 0.0 | 0.0 | 0.00 | 0.00 | 0.00 | 47 | 1009.5 |
| 20260504014105 | 72 | 355 | 0.0 | 0.0 | 0.00 | 0.00 | 0.00 | 45 | 1009.5 |
| 20260504013605 | 72 | 355 | 0.0 | 0.0 | 0.00 | 0.00 | 0.00 | 47 | 1009.6 |
| 20260504013105 | 72 | 355 | 0.0 | 0.0 | 0.00 | 0.00 | 0.00 | 46 | 1009.6 |
| 20260504012605 | 72 | 355 | 0.0 | 0.0 | 0.00 | 0.00 | 0.00 | 46 | 1009.6 |
| 20260504012105 | 72 | 355 | 0.0 | 0.0 | 0.00 | 0.00 | 0.00 | 46 | 1009.7 |
| 20260504011105 | 73 | 355 | 0.0 | 0.0 | 0.00 | 0.00 | 0.00 | 46 | 1009.9 |
| 20260504010606 | 73 | 355 | 0.0 | 0.0 | 0.00 | 0.00 | 0.00 | 46 | 1009.9 |
| 20260504010105 | 73 | 355 | 0.0 | 0.0 | 0.00 | 0.00 | 0.00 | 46 | 1009.9 |
| 20260504005605 | 74 | 355 | 0.0 | 0.0 | 0.00 | 0.00 | 0.00 | 46 | 1010.0 |
| 20260504005106 | 74 | 355 | 0.0 | 0.0 | 0.00 | 0.00 | 0.00 | 47 | 1010.1 |
| 20260504004605 | 74 | 355 | 0.0 | 0.0 | 0.00 | 0.00 | 0.00 | 45 | 1010.1 |
| 20260504004105 | 74 | 355 | 0.0 | 0.0 | 0.00 | 0.00 | 0.00 | 45 | 1010.1 |
| 20260504003605 | 75 | 355 | 0.0 | 0.0 | 0.00 | 0.00 | 0.00 | 43 | 1010.1 |
| 20260504003105 | 75 | 355 | 0.0 | 0.0 | 0.00 | 0.00 | 0.00 | 44 | 1010.2 |
| 20260504002605 | 76 | 355 | 0.0 | 0.0 | 0.00 | 0.00 | 0.00 | 40 | 1010.2 |
| 20260504002105 | 76 | 355 | 0.0 | 0.0 | 0.00 | 0.00 | 0.00 | 41 | 1010.3 |
| 20260504001605 | 77 | 355 | 0.0 | 0.0 | 0.00 | 0.00 | 0.00 | 40 | 1010.3 |
| 20260504001105 | 78 | 355 | 0.0 | 0.0 | 0.00 | 0.00 | 0.00 | 40 | 1010.3 |
| 20260504000605 | 78 | 355 | 1.0 | 5.0 | 0.00 | 0.00 | 0.00 | 37 | 1010.5 |
| 20260504000106 | 78 | 306 | 1.0 | 9.0 | 0.00 | 0.00 | 0.00 | 34 | 1010.5 |
| 20260503235604 | 78 | 309 | 0.0 | 10.0 | 0.00 | 0.00 | 0.00 | 34 | 1010.6 |
| 20260503235105 | 78 | 302 | 0.0 | 6.0 | 0.00 | 0.00 | 0.00 | 36 | 1010.6 |
| 20260503234105 | 78 | 311 | 0.0 | 6.0 | 0.00 | 0.00 | 0.00 | 35 | 1010.6 |
| 20260503233604 | 78 | 314 | 0.0 | 0.0 | 0.00 | 0.00 | 0.00 | 37 | 1010.6 |
| 20260503233105 | 77 | 349 | 0.0 | 0.0 | 0.00 | 0.00 | 0.00 | 36 | 1010.6 |
| 20260503232605 | 77 | 263 | 0.0 | 0.0 | 0.00 | 0.00 | 0.00 | 38 | 1010.7 |
| 20260503232104 | 77 | 263 | 0.0 | 0.0 | 0.00 | 0.00 | 0.00 | 38 | 1010.8 |
| 20260503231605 | 77 | 263 | 0.0 | 1.0 | 0.00 | 0.00 | 0.00 | 38 | 1010.9 |
| 20260503231105 | 78 | 262 | 0.0 | 1.0 | 0.00 | 0.00 | 0.00 | 36 | 1011.0 |
| 20260503230605 | 78 | 262 | 0.0 | 1.0 | 0.00 | 0.00 | 0.00 | 34 | 1011.1 |
| 20260503230105 | 79 | 262 | 0.0 | 1.0 | 0.00 | 0.00 | 0.00 | 35 | 1011.1 |
| 20260503225604 | 79 | 262 | 0.0 | 1.0 | 0.00 | 0.00 | 0.00 | 33 | 1011.1 |
| 20260503225105 | 79 | 261 | 0.0 | 2.0 | 0.00 | 0.00 | 0.00 | 34 | 1011.2 |
| 20260503224604 | 78 | 341 | 0.0 | 0.0 | 0.00 | 0.00 | 0.00 | 36 | 1011.2 |
| 20260503223605 | 78 | 268 | 0.0 | 3.0 | 0.00 | 0.00 | 0.00 | 37 | 1011.4 |
| 20260503223105 | 78 | 268 | 1.0 | 5.0 | 0.00 | 0.00 | 0.00 | 35 | 1011.4 |
| 20260503222605 | 78 | 319 | 0.0 | 1.0 | 0.00 | 0.00 | 0.00 | 35 | 1011.5 |
| 20260503222105 | 77 | 320 | 0.0 | 5.0 | 0.00 | 0.00 | 0.00 | 36 | 1011.5 |
| 20260503221605 | 77 | 323 | 0.0 | 0.0 | 0.00 | 0.00 | 0.00 | 36 | 1011.6 |
| 20260503220605 | 77 | 272 | 0.0 | 5.0 | 0.00 | 0.00 | 0.00 | 36 | 1011.8 |
| 20260503220105 | 78 | 260 | 0.0 | 1.0 | 0.00 | 0.00 | 0.00 | 34 | 1011.8 |
| 20260503215605 | 77 | 260 | 0.0 | 5.0 | 0.00 | 0.00 | 0.00 | 35 | 1011.9 |
| 20260503215104 | 77 | 255 | 0.0 | 2.0 | 0.00 | 0.00 | 0.00 | 36 | 1011.9 |
| 20260503214605 | 77 | 259 | 1.0 | 3.0 | 0.00 | 0.00 | 0.00 | 36 | 1012.1 |
| 20260503214106 | 77 | 303 | 0.0 | 1.0 | 0.00 | 0.00 | 0.00 | 38 | 1012.1 |
| 20260503213605 | 77 | 303 | 0.0 | 5.0 | 0.00 | 0.00 | 0.00 | 36 | 1012.1 |
| 20260503212605 | 77 | 288 | 0.0 | 1.0 | 0.00 | 0.00 | 0.00 | 40 | 1012.2 |
| 20260503212106 | 77 | 333 | 0.0 | 0.0 | 0.00 | 0.00 | 0.00 | 39 | 1012.2 |
| 20260503211605 | 77 | 86 | 0.0 | 1.0 | 0.00 | 0.00 | 0.00 | 38 | 1012.3 |
| 20260503211105 | 77 | 91 | 0.0 | 5.0 | 0.00 | 0.00 | 0.00 | 38 | 1012.3 |
| 20260503210605 | 76 | 265 | 1.0 | 5.0 | 0.00 | 0.00 | 0.00 | 40 | 1012.3 |
| 20260503210105 | 76 | 262 | 0.0 | 5.0 | 0.00 | 0.00 | 0.00 | 38 | 1012.3 |
| 20260503205604 | 76 | 271 | 0.0 | 8.0 | 0.00 | 0.00 | 0.00 | 38 | 1012.5 |
| 20260503205104 | 76 | 242 | 0.0 | 6.0 | 0.00 | 0.00 | 0.00 | 39 | 1012.4 |
| 20260503203105 | 75 | 262 | 1.0 | 8.0 | 0.00 | 0.00 | 0.00 | 41 | 1012.6 |
| 20260503202106 | 76 | 165 | 2.0 | 10.0 | 0.00 | 0.00 | 0.00 | 39 | 1012.7 |
| 20260503201605 | 76 | 272 | 0.0 | 6.0 | 0.00 | 0.00 | 0.00 | 41 | 1012.7 |
| 20260503201105 | 75 | 267 | 0.0 | 3.0 | 0.00 | 0.00 | 0.00 | 41 | 1012.9 |
| 20260503200605 | 75 | 26 | 0.0 | 1.0 | 0.00 | 0.00 | 0.00 | 44 | 1013.0 |
| 20260503200106 | 75 | 331 | 0.0 | 5.0 | 0.00 | 0.00 | 0.00 | 42 | 1013.0 |
| 20260503195605 | 75 | 113 | 0.0 | 0.0 | 0.00 | 0.00 | 0.00 | 42 | 1013.1 |
| 20260503195105 | 75 | 227 | 0.0 | 1.0 | 0.00 | 0.00 | 0.00 | 44 | 1013.2 |
| 20260503194106 | 75 | 19 | 0.0 | 1.0 | 0.00 | 0.00 | 0.00 | 47 | 1013.3 |
| 20260503193105 | 75 | 69 | 0.0 | 6.0 | 0.00 | 0.00 | 0.00 | 43 | 1013.4 |
| 20260503192605 | 75 | 351 | 0.0 | 0.0 | 0.00 | 0.00 | 0.00 | 42 | 1013.4 |
| 20260503192105 | 75 | 61 | 1.0 | 8.0 | 0.00 | 0.00 | 0.00 | 44 | 1013.5 |
| 20260503191104 | 76 | 15 | 2.0 | 8.0 | 0.00 | 0.00 | 0.00 | 40 | 1013.5 |
| 20260503190606 | 76 | 348 | 0.0 | 0.0 | 0.00 | 0.00 | 0.00 | 39 | 1013.6 |
| 20260503190105 | 74 | 350 | 6.0 | 14.0 | 0.00 | 0.00 | 0.00 | 39 | 1013.7 |
| 20260503185605 | 75 | 352 | 3.0 | 10.0 | 0.00 | 0.00 | 0.00 | 39 | 1013.7 |
| 20260503185105 | 75 | 312 | 2.0 | 10.0 | 0.00 | 0.00 | 0.00 | 38 | 1013.7 |
| 20260503184605 | 75 | 312 | 1.0 | 6.0 | 0.00 | 0.00 | 0.00 | 42 | 1013.7 |
| 20260503184104 | 75 | 332 | 0.0 | 5.0 | 0.00 | 0.00 | 0.00 | 41 | 1013.8 |
| 20260503183604 | 75 | 355 | 0.0 | 1.0 | 0.00 | 0.00 | 0.00 | 48 | 1013.8 |
| 20260503183104 | 74 | 89 | 0.0 | 5.0 | 0.00 | 0.00 | 0.00 | 46 | 1013.8 |
| 20260503182606 | 73 | 355 | 0.0 | 5.0 | 0.00 | 0.00 | 0.00 | 51 | 1013.8 |
| 20260503182104 | 74 | 55 | 0.0 | 6.0 | 0.00 | 0.00 | 0.00 | 48 | 1013.8 |
| 20260503181604 | 73 | 69 | 0.0 | 3.0 | 0.00 | 0.00 | 0.00 | 50 | 1013.8 |
| 20260503180605 | 73 | 60 | 1.0 | 6.0 | 0.00 | 0.00 | 0.00 | 46 | 1013.8 |
| 20260503180105 | 73 | 42 | 1.0 | 5.0 | 0.00 | 0.00 | 0.00 | 45 | 1013.8 |
| 20260503175605 | 73 | 308 | 2.0 | 14.0 | 0.00 | 0.00 | 0.00 | 45 | 1013.8 |
| 20260503175105 | 73 | 304 | 5.0 | 9.0 | 0.00 | 0.00 | 0.00 | 43 | 1013.9 |
| 20260503174605 | 74 | 322 | 2.0 | 8.0 | 0.00 | 0.00 | 0.00 | 40 | 1013.9 |
| 20260503174106 | 74 | 320 | 4.0 | 9.0 | 0.00 | 0.00 | 0.00 | 43 | 1013.9 |
| 20260503173605 | 73 | 32 | 3.0 | 12.0 | 0.00 | 0.00 | 0.00 | 43 | 1014.0 |
| 20260503173105 | 73 | 341 | 0.0 | 12.0 | 0.00 | 0.00 | 0.00 | 44 | 1014.0 |
| 20260503172605 | 73 | 315 | 9.0 | 14.0 | 0.00 | 0.00 | 0.00 | 42 | 1014.0 |
| 20260503172104 | 73 | 200 | 0.0 | 2.0 | 0.00 | 0.00 | 0.00 | 40 | 1014.0 |
| 20260503171604 | 73 | 267 | 0.0 | 1.0 | 0.00 | 0.00 | 0.00 | 44 | 1014.1 |
| 20260503171105 | 72 | 11 | 0.0 | 5.0 | 0.00 | 0.00 | 0.00 | 46 | 1014.1 |
| 20260503170105 | 71 | 324 | 0.0 | 9.0 | 0.00 | 0.00 | 0.00 | 46 | 1014.1 |